星链-11556 (STARLINK-11556)

导读 | 星芒AI

STARLINK-11556 是 SpaceX Starlink 项目中的一颗低轨通信卫星,属于第55组 Starlink 卫星群。该卫星于2023年发射,部署在约550公里高度的近地轨道,旨在为全球用户提供高速互联网服务。Starlink 卫星采用先进推进系统和激光通信技术,支持快速组网与高效数据传输。该计划致力于改善偏远地区网络覆盖,同时推动全球宽带接入的普及。

基本信息
目录编号:
62838
目录名称:
STARLINK-11556
国际标识:
2025-019K
轨道中心:
EARTH
卫星名称:
星链-11556
卫星全名:
星链-11556 (STARLINK-11556)
卫星状态:
在轨 (已飞行328 天)
发射日期:
2025-01-27 UTC
国别 :
美国 (US)
星等 :
--
轨道信息
数据来源 国际轨道数据
星历时间: 2025-12-21T13:34:07+0800
17小时前
查看轨道信息
半长轴: 6734.45km
偏心率: 0.0001616
轨道倾角: 43.001°
近地点辐角 253.069°
升交点赤经 58.696°
平近点角 107.000°
近地点: 355.224km
远地点: 357.402km
周期: 91.667分钟
每日圈数: 15.709038
详细信息
固有亮度:
5
最大亮度:
2.5
卫星平台:
Starlink V1.0
覆盖范围:
全球
运营商:
太空探索技术公司
运营商所在国:
美国
制造商(研发单位):
太空探索技术公司
制造商所在国:
美国
使用方式:
暂无
卫星简介
Starlink 计划是 SpaceX 推出的全球卫星互联网项目,通过发射低轨道卫星,为全球尤其是偏远地区提供高速、低延迟的互联网服务。自 2019 年起,Starlink 已部署数千颗卫星,旨在缩小全球数字鸿沟,推动互联网普及。该项目还为军事、航空等行业提供通信支持,带来广泛经济效益。
2D轨道图
3D轨道图
轨道高度分析图
轨道倾角分析图
轨道综合分析图
查看轨道综合分析图